• In Hungary
  • List of Countries
  • For 7 days
  • Water Temperature
  • Satellite Maps
  • Weather Map
  • News
  • Weather Widgets
  • user-avatar
    Login

    Hourly Weather Ponary

    Today, 20 November, Monday

    Time Temperature Precipitation Wind Pressure Humidity
    00:00 -1°C° 0 mm 4 mps 737 mmHg 90%
    01:00 -1°C° 0 mm 4 mps 737 mmHg 91%
    02:00 -1°C° 0.3 mm 4 mps 738 mmHg 91%
    03:00 -1°C° 0.3 mm 4 mps 738 mmHg 92%
    04:00 0°C° 0.3 mm 5 mps 739 mmHg 92%
    05:00 -1°C° 0.9 mm 6 mps 739 mmHg 89%
    06:00 -1°C° 0.9 mm 7 mps 740 mmHg 87%
    07:00 0°C° 0.9 mm 8 mps 740 mmHg 84%
    08:00 -1°C° 0.2 mm 7 mps 741 mmHg 81%
    09:00 -1°C° 0.2 mm 7 mps 742 mmHg 78%
    10:00 -1°C° 0.2 mm 7 mps 742 mmHg 75%
    11:00 -1°C° 0 mm 7 mps 743 mmHg 75%
    12:00 -1°C° 0 mm 6 mps 743 mmHg 75%
    13:00 -1°C° 0 mm 6 mps 743 mmHg 74%
    14:00 -1°C° 0.1 mm 6 mps 744 mmHg 76%
    15:00 0°C° 0.1 mm 5 mps 744 mmHg 77%
    16:00 -1°C° 0.1 mm 4 mps 744 mmHg 78%
    17:00 -1°C° 0 mm 4 mps 744 mmHg 81%
    18:00 -2°C° 0 mm 4 mps 744 mmHg 83%
    19:00 -1°C° 0 mm 3 mps 744 mmHg 85%
    20:00 -1°C° 0 mm 3 mps 745 mmHg 86%
    21:00 -1°C° 0 mm 3 mps 745 mmHg 88%
    22:00 -2°C° 0 mm 3 mps 745 mmHg 89%
    23:00 -2°C° 0 mm 3 mps 745 mmHg 89%

    Tomorrow, 21 November, Tuesday

    Time Temperature Precipitation Wind Pressure Humidity
    00:00 -2°C° 0 mm 3 mps 745 mmHg 89%
    01:00 -2°C° 0 mm 3 mps 745 mmHg 90%
    02:00 -2°C° 0 mm 2 mps 745 mmHg 90%
    03:00 -2°C° 0 mm 2 mps 745 mmHg 90%
    04:00 -2°C° 0 mm 2 mps 745 mmHg 90%
    05:00 -2°C° 0 mm 2 mps 745 mmHg 89%
    06:00 0°C° 0 mm 1 mps 745 mmHg 89%
    07:00 0°C° 0 mm 1 mps 745 mmHg 89%
    08:00 +1°C° 0 mm 1 mps 745 mmHg 86%
    09:00 +2°C° 0 mm 1 mps 746 mmHg 83%
    10:00 +2°C° 0 mm 1 mps 746 mmHg 80%
    11:00 +2°C° 0.1 mm 2 mps 746 mmHg 79%
    12:00 +2°C° 0.1 mm 2 mps 746 mmHg 77%
    13:00 +3°C° 0.1 mm 2 mps 746 mmHg 76%
    14:00 +2°C° 0.1 mm 2 mps 746 mmHg 79%
    15:00 +2°C° 0.1 mm 1 mps 746 mmHg 82%
    16:00 +2°C° 0.1 mm 1 mps 747 mmHg 85%
    17:00 +1°C° 0.1 mm 1 mps 747 mmHg 86%
    18:00 +1°C° 0.1 mm 1 mps 747 mmHg 87%
    19:00 +1°C° 0.1 mm 1 mps 748 mmHg 87%
    20:00 +1°C° 0 mm 1 mps 748 mmHg 88%
    21:00 +1°C° 0 mm 1 mps 748 mmHg 89%
    22:00 0°C° 0 mm 1 mps 749 mmHg 90%
    23:00 0°C° 0 mm 1 mps 749 mmHg 90%

    Day after tomorrow, 22 November, Wednesday

    Time Temperature Precipitation Wind Pressure Humidity
    00:00 0°C° 0 mm 1 mps 749 mmHg 90%
    01:00 0°C° 0 mm 1 mps 749 mmHg 91%
    02:00 0°C° 0 mm 1 mps 749 mmHg 91%
    03:00 0°C° 0 mm 1 mps 749 mmHg 91%
    04:00 -2°C° 0 mm 2 mps 749 mmHg 91%
    05:00 -2°C° 0 mm 2 mps 750 mmHg 89%
    06:00 -1°C° 0 mm 2 mps 750 mmHg 87%
    07:00 -1°C° 0 mm 3 mps 750 mmHg 86%
    08:00 -1°C° 0 mm 3 mps 750 mmHg 82%
    09:00 -1°C° 0 mm 4 mps 750 mmHg 79%
    10:00 -1°C° 0 mm 4 mps 750 mmHg 76%
    11:00 -1°C° 0.2 mm 5 mps 749 mmHg 76%
    12:00 -1°C° 0.2 mm 5 mps 749 mmHg 76%
    13:00 -1°C° 0.2 mm 5 mps 749 mmHg 76%
    14:00 -2°C° 0.3 mm 6 mps 749 mmHg 79%
    15:00 -2°C° 0.3 mm 6 mps 748 mmHg 81%
    16:00 -2°C° 0.3 mm 6 mps 748 mmHg 83%
    17:00 -2°C° 0.1 mm 6 mps 748 mmHg 85%
    18:00 -2°C° 0.1 mm 6 mps 748 mmHg 87%
    19:00 -2°C° 0.1 mm 6 mps 748 mmHg 89%
    20:00 -1°C° 0.1 mm 6 mps 748 mmHg 90%
    21:00 0°C° 0.1 mm 5 mps 748 mmHg 92%
    22:00 0°C° 0.1 mm 5 mps 748 mmHg 94%
    23:00 0°C° 0.2 mm 5 mps 748 mmHg 95%

    23 November, Thursday

    Time Temperature Precipitation Wind Pressure Humidity
    00:00 +1°C° 0.2 mm 5 mps 748 mmHg 95%
    01:00 +1°C° 0.2 mm 5 mps 748 mmHg 96%
    02:00 +1°C° 0 mm 5 mps 748 mmHg 96%
    03:00 +1°C° 0 mm 5 mps 748 mmHg 96%
    04:00 +1°C° 0 mm 5 mps 748 mmHg 96%
    05:00 +1°C° 0 mm 5 mps 748 mmHg 95%
    06:00 +1°C° 0 mm 5 mps 748 mmHg 94%
    07:00 +1°C° 0 mm 5 mps 748 mmHg 93%
    08:00 +1°C° 0 mm 6 mps 748 mmHg 90%
    09:00 +2°C° 0 mm 6 mps 748 mmHg 86%
    10:00 +2°C° 0 mm 6 mps 748 mmHg 83%
    11:00 +3°C° 0 mm 6 mps 748 mmHg 81%
    12:00 +3°C° 0 mm 6 mps 748 mmHg 80%
    13:00 +5°C° 0 mm 5 mps 748 mmHg 78%
    14:00 +3°C° 0 mm 5 mps 749 mmHg 81%
    15:00 +3°C° 0 mm 5 mps 749 mmHg 84%
    16:00 +3°C° 0 mm 4 mps 749 mmHg 87%
    17:00 +3°C° 0 mm 4 mps 749 mmHg 88%
    18:00 +4°C° 0 mm 4 mps 750 mmHg 88%
    19:00 +4°C° 0 mm 4 mps 750 mmHg 89%
    20:00 +4°C° 0 mm 4 mps 750 mmHg 90%
    21:00 +4°C° 0 mm 4 mps 750 mmHg 91%
    22:00 +4°C° 0 mm 4 mps 751 mmHg 93%
    23:00 +4°C° 0 mm 4 mps 751 mmHg 93%

    24 November, Friday

    Time Temperature Precipitation Wind Pressure Humidity
    00:00 +4°C° 0 mm 4 mps 751 mmHg 94%
    01:00 +4°C° 0 mm 3 mps 751 mmHg 95%
    02:00 +4°C° 0 mm 3 mps 751 mmHg 95%
    03:00 +4°C° 0 mm 3 mps 751 mmHg 95%
    04:00 +3°C° 0 mm 3 mps 752 mmHg 95%
    05:00 +3°C° 0 mm 3 mps 752 mmHg 95%
    06:00 +3°C° 0 mm 3 mps 752 mmHg 95%
    07:00 +3°C° 0 mm 3 mps 752 mmHg 95%
    08:00 +4°C° 0 mm 3 mps 752 mmHg 94%
    09:00 +5°C° 0 mm 3 mps 753 mmHg 92%
    10:00 +6°C° 0 mm 4 mps 753 mmHg 91%
    11:00 +6°C° 0 mm 4 mps 753 mmHg 89%
    12:00 +8°C° 0 mm 3 mps 753 mmHg 88%
    13:00 +8°C° 0 mm 3 mps 753 mmHg 87%
    14:00 +8°C° 0 mm 3 mps 753 mmHg 88%
    15:00 +7°C° 0 mm 3 mps 753 mmHg 90%
    16:00 +5°C° 0 mm 3 mps 753 mmHg 92%
    17:00 +5°C° 0 mm 3 mps 753 mmHg 92%
    18:00 +5°C° 0 mm 3 mps 753 mmHg 91%
    19:00 +4°C° 0 mm 3 mps 753 mmHg 91%
    20:00 +4°C° 0 mm 3 mps 753 mmHg 91%
    21:00 +4°C° 0 mm 3 mps 754 mmHg 91%
    22:00 +4°C° 0 mm 3 mps 754 mmHg 90%
    23:00 +4°C° 0 mm 3 mps 754 mmHg 90%

    25 November, Saturday

    Time Temperature Precipitation Wind Pressure Humidity
    00:00 +4°C° 0 mm 3 mps 754 mmHg 89%
    01:00 +4°C° 0 mm 3 mps 754 mmHg 89%
    02:00 +4°C° 0 mm 3 mps 754 mmHg 88%
    03:00 +4°C° 0 mm 3 mps 754 mmHg 88%
    04:00 +4°C° 0 mm 3 mps 754 mmHg 87%
    05:00 +4°C° 0 mm 3 mps 754 mmHg 86%
    06:00 +3°C° 0 mm 3 mps 754 mmHg 85%
    07:00 +3°C° 0 mm 4 mps 754 mmHg 84%
    08:00 +4°C° 0 mm 4 mps 754 mmHg 81%
    09:00 +5°C° 0 mm 4 mps 754 mmHg 77%
    10:00 +6°C° 0 mm 4 mps 754 mmHg 73%
    11:00 +6°C° 0 mm 4 mps 754 mmHg 72%
    12:00 +7°C° 0 mm 4 mps 754 mmHg 71%
    13:00 +7°C° 0 mm 4 mps 754 mmHg 69%
    14:00 +6°C° 0 mm 5 mps 754 mmHg 74%
    15:00 +6°C° 0 mm 5 mps 753 mmHg 78%
    16:00 +5°C° 0 mm 5 mps 753 mmHg 82%
    17:00 +5°C° 0 mm 5 mps 753 mmHg 82%
    18:00 +5°C° 0 mm 5 mps 753 mmHg 82%
    19:00 +4°C° 0 mm 6 mps 753 mmHg 82%
    20:00 +5°C° 0 mm 5 mps 753 mmHg 82%
    21:00 +5°C° 0 mm 5 mps 753 mmHg 83%
    22:00 +3°C° 0 mm 5 mps 753 mmHg 84%
    23:00 +3°C° 0 mm 6 mps 753 mmHg 84%
    Show more